[[{"header":{"parameterUnit":"m.s-1","parameterCategory":1,"la1":30.2991,"la2":30.254,"lo1":-89.0895,"lo2":-89.0444,"dy":0.0017,"dx":0.0017,"nx":28,"ny":28,"refTime":"2023-08-10T21:00:00:Z","depth":0,"parameterNumber":2,"parameterNumberName":"U-component_of_WINDS"},"data":[0,0,0,0,0,0,0,0,0,0,0,0,0,0,0,0,0,0,0,0,0,0,0,0,0,0,0,0,0,0,0,0,0,0,0,0,0,0,0,0,0,0,0,0,0,0,0,0,0,0,0,0,0,0,0,0,0,0,4.4718,4.4719,0,4.4779,4.478,4.478,4.4736,4.4734,4.4732,4.473,4.4794,4.4797,4.4801,0,0,0,0,0,0,0,0,0,0,0,0,0,4.4565,4.4568,4.4718,4.4719,4.4719,4.4779,4.478,4.478,4.4736,4.4734,4.4731,4.4729,4.4793,4.4797,4.4801,0,0,0,0,0,0,0,0,0,0,0,0,0,4.4629,4.4569,4.4718,4.4704,4.4704,4.4779,4.478,4.4781,4.4737,4.4734,4.4731,4.4728,4.4791,4.4797,4.4802,4.4893,0,0,4.4818,4.482,0,0,0,0,0,0,0,0,4.4626,4.4635,4.4706,4.4705,4.4705,4.4747,4.4749,4.4819,4.4737,4.4724,4.473,4.4727,4.4781,4.4787,4.4805,4.4896,4.4899,4.4819,4.4822,4.4824,4.4826,0,0,0,0,0,0,0,4.4621,4.4632,4.4742,4.4707,4.4706,4.4696,4.4702,4.4762,4.4768,4.4725,4.4722,4.473,4.478,4.48,4.4806,4.49,4.4818,4.4823,4.4826,4.4828,4.5071,4.5074,0,0,0,0,0,0,4.4618,4.4629,4.474,4.4744,4.4657,4.4701,4.4708,4.4736,4.4768,4.4769,4.4732,4.4728,4.4792,4.48,4.4808,4.4917,4.4824,4.4829,4.4832,4.5067,4.5071,4.5075,0,0,0,0,0,0,4.4615,4.4628,4.4738,4.4685,4.4699,4.4707,4.4739,4.4739,4.4759,4.4773,4.4774,4.4751,4.479,4.4801,4.4872,4.4919,4.4831,4.4836,4.5063,4.5069,4.5073,4.5136,0,0,0,0,0,0,4.461,4.4627,4.4662,4.4687,4.4702,4.4801,4.4742,4.4742,4.4768,4.4762,4.4791,4.4793,4.4789,4.4865,4.4878,4.4924,4.484,4.5059,4.5066,4.5071,4.513,4.5143,4.5154,0,0,0,0,0,4.4605,4.4677,4.4664,4.4677,4.4745,4.4803,4.4812,4.4805,4.4772,4.4807,4.4816,4.4792,4.4912,4.4873,4.4887,4.4936,4.5056,4.5064,4.5071,4.5125,4.514,4.5153,0,0,0,0,0,0,4.4658,4.468,4.4665,4.4748,4.4774,4.4796,4.484,4.4822,4.4859,4.4852,4.4842,4.4849,4.4925,4.4938,4.4894,4.5026,4.4979,4.4989,4.5015,4.503,4.5041,4.5036,4.4845,0,0,0,0,0,4.4679,4.4725,4.4742,4.4813,4.4827,4.4831,4.4857,4.4849,4.4876,4.4887,4.4902,4.4929,4.4973,4.5002,4.5043,4.5132,4.5138,4.5173,4.5185,4.5194,4.5203,4.5251,4.5267,4.5099,4.5099,4.5099,0,0,4.4724,4.4741,4.4771,4.4824,4.4844,4.4891,4.4841,4.4893,4.4929,4.4895,4.4964,4.4976,4.5006,4.5087,4.5123,4.51,4.5251,4.5204,4.5211,4.5215,4.5261,4.5276,4.5291,4.5104,4.5103,4.5102,0,0,4.4829,4.4847,4.4908,4.4928,4.4959,4.4961,4.4976,4.5001,4.5007,4.5076,4.5052,4.5094,4.517,4.5193,4.5214,4.5329,4.5308,4.5343,4.5404,4.545,4.5464,4.5475,4.5516,4.5531,4.5352,4.5352,4.5352,0,4.488,4.495,4.4942,4.4996,4.502,4.4992,4.5054,4.5075,4.5117,4.5135,4.5108,4.5203,4.5221,4.5307,4.5335,4.5354,4.537,4.5339,4.5462,4.5474,4.5485,4.5524,4.5539,4.5356,4.5355,4.5355,4.5354,0,4.5012,4.5061,4.5107,4.5148,4.5178,4.5236,4.5237,4.5268,4.5258,4.5264,4.5335,4.5356,4.5401,4.5421,4.5412,4.5506,4.549,4.5463,4.5415,4.5505,4.5541,4.5556,4.5361,4.536,4.5359,4.5358,0,0,4.5151,4.5187,4.5204,4.5222,4.5254,4.5292,4.535,4.5393,4.542,4.5451,4.5499,4.5564,4.5539,4.5563,4.5557,4.5599,4.5688,4.5566,4.5567,4.5588,4.5792,4.5812,4.5829,4.5675,4.5677,4.568,4.5789,0,4.5257,4.5356,4.535,4.5444,4.5489,4.5464,4.5514,4.5539,4.5546,4.5586,4.5594,4.564,4.5604,4.5619,4.5659,4.5668,4.5729,4.5661,4.5719,4.5721,4.5712,4.5848,4.5869,4.5971,4.5804,4.5806,4.5808,0,4.5394,4.5429,4.5527,4.5552,4.5571,4.5615,4.5655,4.5694,4.5722,4.5725,4.5752,4.5739,4.5798,4.5749,4.583,4.5783,4.5807,4.5816,4.582,4.5824,4.5769,4.5856,4.6004,4.6019,4.583,4.5828,4.5827,0,4.5485,4.5557,4.5624,4.5641,4.5672,4.5704,4.5719,4.5744,4.5771,4.5806,4.5824,4.5865,4.5888,4.5921,4.592,4.5885,4.6002,4.5953,4.6005,4.6006,4.603,4.6029,4.6184,4.6047,4.6047,4.6047,4.6046,0,4.5604,4.5665,4.5666,4.5707,4.5775,4.5768,4.5835,4.5847,4.587,4.5913,4.5894,4.5936,4.5932,4.5974,4.5974,4.6041,4.6051,4.6055,4.6054,4.6056,4.6056,4.6071,4.6064,4.6051,4.605,4.6049,4.6048,0,4.5717,4.572,4.5792,4.5816,4.5823,4.5872,4.5892,4.5932,4.5938,4.5993,4.6006,4.6015,4.6064,4.6066,4.6122,4.6122,4.6203,4.6195,4.6194,4.6192,4.6244,4.6239,4.6414,4.6436,4.6286,4.6287,4.6288,0,4.5792,4.5838,4.5867,4.5895,4.5911,4.5956,4.5983,4.5979,4.6008,4.6044,4.608,4.6127,4.6164,4.6243,4.6255,4.6298,4.629,4.6348,4.6296,4.6297,4.629,4.6287,4.6291,4.6358,4.636,4.6361,4.6362,0,4.5925,4.5925,4.5964,4.6005,4.6038,4.607,4.61,4.6124,4.6123,4.6157,4.6206,4.6235,4.6292,4.6339,4.6381,4.6397,4.638,4.6379,4.6393,4.6395,4.6392,4.6394,4.6221,4.6374,4.6373,4.6372,4.6372,4.6371,4.6021,4.6061,4.6087,4.6132,4.6154,4.6183,4.6221,4.6232,4.6273,4.6319,4.6314,4.6369,4.6397,4.6451,4.647,4.6513,4.6493,4.6514,4.6519,4.6524,4.653,4.6386,4.6521,4.6521,4.652,4.652,4.652,0,4.6153,4.6169,4.621,4.6252,4.6288,4.6269,4.6301,4.6332,4.638,4.6408,4.6445,4.6501,4.6547,4.6563,4.6607,4.6639,4.6632,4.665,4.6647,4.6651,4.6545,4.6528,4.6655,4.6655,4.6655,4.6655,4.6655,4.6655,4.6225,4.6292,4.6294,4.6372,4.6387,4.644,4.646,4.6486,4.6508,4.6572,4.661,4.662,4.6643,4.6689,4.673,4.6733,4.675,4.6772,4.6772,4.6672,4.6659,4.6646,4.663,4.6776,4.6776,4.6874,4.6875,4.6876]},{"header":{"parameterUnit":"m.s-1","parameterCategory":1,"la1":30.2991,"la2":30.254,"lo1":-89.0895,"lo2":-89.0444,"dy":0.0017,"dx":0.0017,"nx":28,"ny":28,"refTime":"2023-08-10T21:00:00:Z","depth":0,"parameterNumber":3,"parameterNumberName":"V-component_of_WINDS"},"data":[0,0,0,0,0,0,0,0,0,0,0,0,0,0,0,0,0,0,0,0,0,0,0,0,0,0,0,0,0,0,0,0,0,0,0,0,0,0,0,0,0,0,0,0,0,0,0,0,0,0,0,0,0,0,0,0,0,0,2.715,2.7149,0,2.7113,2.7113,2.7112,2.7091,2.7091,2.709,2.709,2.7049,2.7048,2.7047,0,0,0,0,0,0,0,0,0,0,0,0,0,2.7198,2.7197,2.715,2.7149,2.7149,2.7113,2.7113,2.7112,2.7091,2.7091,2.709,2.709,2.7049,2.7048,2.7047,0,0,0,0,0,0,0,0,0,0,0,0,0,2.717,2.7197,2.715,2.7134,2.7132,2.7113,2.7113,2.7112,2.7091,2.7091,2.709,2.709,2.705,2.7048,2.7047,2.704,0,0,2.7042,2.7041,0,0,0,0,0,0,0,0,2.7172,2.7169,2.7137,2.7135,2.7133,2.7106,2.7114,2.7088,2.7091,2.7106,2.709,2.709,2.7068,2.7065,2.7058,2.7038,2.7036,2.7042,2.7041,2.704,2.704,0,0,0,0,0,0,0,2.7174,2.717,2.7135,2.7136,2.7134,2.7127,2.7123,2.7109,2.7088,2.7105,2.7103,2.7099,2.7067,2.706,2.7057,2.7035,2.7042,2.704,2.704,2.7039,2.7006,2.7006,0,0,0,0,0,0,2.7179,2.7172,2.7136,2.7134,2.7153,2.7127,2.7122,2.7115,2.7088,2.7084,2.71,2.7099,2.7062,2.7059,2.7055,2.7045,2.704,2.7039,2.7038,2.7006,2.7006,2.7006,0,0,0,0,0,0,2.718,2.7176,2.7138,2.7153,2.7147,2.7126,2.7118,2.7114,2.7107,2.7084,2.708,2.7096,2.7062,2.7058,2.7044,2.7043,2.7038,2.7037,2.7006,2.7006,2.7006,2.7024,0,0,0,0,0,0,2.7182,2.7177,2.7175,2.7153,2.7147,2.7128,2.7118,2.7114,2.7105,2.7103,2.708,2.7076,2.7062,2.7046,2.7042,2.7041,2.7035,2.7006,2.7006,2.7006,2.7023,2.7025,2.7026,0,0,0,0,0,2.7183,2.718,2.7175,2.717,2.7144,2.7128,2.7124,2.7109,2.7105,2.7102,2.7087,2.7077,2.7044,2.7045,2.704,2.7038,2.7006,2.7006,2.7006,2.7023,2.7024,2.7026,0,0,0,0,0,0,2.7202,2.7177,2.7171,2.7161,2.7147,2.7125,2.7121,2.7111,2.7097,2.7096,2.7076,2.7071,2.7059,2.7047,2.7049,2.703,2.7024,2.7023,2.7038,2.7039,2.704,2.7043,2.7034,0,0,0,0,0,2.7205,2.7195,2.7174,2.7167,2.7161,2.7142,2.7135,2.7124,2.7108,2.7102,2.7086,2.707,2.7056,2.7047,2.7033,2.7022,2.7015,2.7018,2.7019,2.702,2.702,2.7012,2.7012,2.7006,2.7006,2.7006,0,0,2.7211,2.7196,2.7191,2.7171,2.7159,2.7148,2.7137,2.7126,2.7118,2.71,2.7086,2.7074,2.7054,2.7042,2.7035,2.7031,2.702,2.702,2.7021,2.702,2.7012,2.7013,2.7013,2.7006,2.7006,2.7006,0,0,2.7216,2.7204,2.7197,2.7186,2.7168,2.7155,2.7154,2.7133,2.7124,2.7111,2.7096,2.7085,2.7062,2.7048,2.7039,2.7038,2.7028,2.7034,2.704,2.7033,2.7034,2.7034,2.7033,2.7033,2.7034,2.7034,2.7034,0,2.7225,2.721,2.7195,2.7185,2.7176,2.716,2.7152,2.7141,2.7119,2.7112,2.7109,2.7079,2.7065,2.7048,2.7048,2.7041,2.7037,2.7037,2.7035,2.7035,2.7035,2.7034,2.7034,2.7035,2.7035,2.7034,2.7034,0,2.7222,2.7211,2.7207,2.7188,2.7178,2.7169,2.7152,2.7144,2.7134,2.7121,2.7106,2.7089,2.7071,2.7066,2.7056,2.7048,2.7046,2.7039,2.7032,2.7037,2.7036,2.7035,2.7036,2.7036,2.7035,2.7035,0,0,2.7237,2.721,2.7208,2.7199,2.7178,2.7169,2.7159,2.7142,2.7135,2.7121,2.7111,2.7091,2.7084,2.7073,2.7061,2.7055,2.7055,2.7048,2.7048,2.705,2.7044,2.7049,2.7049,2.7048,2.7048,2.7048,2.7046,0,2.7239,2.7222,2.7207,2.7195,2.7184,2.7169,2.716,2.7145,2.7133,2.7121,2.7107,2.7093,2.7086,2.7079,2.7072,2.7057,2.7054,2.7057,2.7037,2.7037,2.7042,2.7049,2.7054,2.7053,2.7045,2.7045,2.7045,0,2.7239,2.7226,2.7212,2.7192,2.7187,2.718,2.7163,2.7152,2.7135,2.7126,2.7114,2.7102,2.7089,2.7084,2.7065,2.7067,2.7058,2.7049,2.7049,2.7046,2.7041,2.7045,2.7052,2.7052,2.7044,2.7044,2.7044,0,2.7251,2.723,2.7219,2.7211,2.7188,2.7183,2.7172,2.7155,2.7146,2.7131,2.7124,2.7107,2.7098,2.7085,2.7067,2.7065,2.705,2.7044,2.7041,2.7042,2.7039,2.7039,2.7044,2.7034,2.7034,2.7034,2.7034,0,2.7254,2.7246,2.7224,2.7217,2.7207,2.7191,2.7181,2.7169,2.7154,2.7144,2.7129,2.7119,2.7098,2.7085,2.7071,2.7057,2.7053,2.7045,2.7041,2.7046,2.7047,2.7039,2.7039,2.7034,2.7034,2.7034,2.7034,0,2.7266,2.7251,2.7238,2.7217,2.7211,2.7205,2.7186,2.7178,2.7165,2.7152,2.7148,2.7128,2.7112,2.7094,2.7071,2.7062,2.7049,2.7044,2.7055,2.7053,2.7052,2.7052,2.7051,2.705,2.7042,2.7042,2.7042,0,2.7268,2.7262,2.7241,2.7234,2.7224,2.7212,2.7203,2.7186,2.7177,2.7156,2.715,2.7134,2.712,2.7095,2.7077,2.7059,2.7053,2.7054,2.705,2.7055,2.7053,2.7053,2.7052,2.7055,2.7055,2.7056,2.7056,0,2.7275,2.7268,2.7256,2.7241,2.7231,2.7218,2.7204,2.7199,2.7179,2.7169,2.7153,2.7142,2.712,2.7103,2.7083,2.7071,2.706,2.7057,2.7056,2.706,2.7067,2.7063,2.7057,2.7057,2.7057,2.7057,2.7057,2.7057,2.7282,2.7275,2.7259,2.7246,2.7234,2.7222,2.7214,2.72,2.7187,2.7169,2.7159,2.7143,2.7125,2.7098,2.7086,2.7072,2.7068,2.7066,2.7066,2.7065,2.7066,2.707,2.7069,2.7068,2.7068,2.7068,2.7068,0,2.7287,2.7276,2.7264,2.7246,2.7235,2.7227,2.7212,2.7203,2.719,2.7174,2.7161,2.7142,2.7126,2.7107,2.7089,2.7081,2.7076,2.7077,2.7077,2.7074,2.7071,2.7074,2.7082,2.7082,2.7082,2.7082,2.7082,2.7082,2.7288,2.7277,2.7268,2.725,2.7238,2.7224,2.7216,2.7204,2.7192,2.7172,2.7159,2.7147,2.713,2.711,2.7094,2.7089,2.7083,2.7086,2.7079,2.7076,2.7075,2.7074,2.7076,2.7085,2.7085,2.7083,2.7083,2.7083]}]]